Theta_e
344 344 342 344 343 340 336 332 324 318 320 325 326 332 332 331 332 331 332 329 328 324 323 323 325 326 328 329 330 330 331 331 331 331 328 327 330 334
350 349 348 347 340 340 337 333 330 325 320 325 327 329 332 331 333 331 331 329 326 323 323 322 322 323 324 325 326 327 328 327 327 327 326 326 326 330
350 348 346 345 340 336 337 332 329 328 324 323 328 329 327 328 328 328 330 328 329 323 323 321 319 320 320 321 322 324 325 324 324 324 323 322 324 326
347 346 344 344 340 339 334 331 330 330 325 324 325 324 326 325 324 323 327 332 329 325 322 318 316 316 315 316 318 319 319 319 320 321 320 320 322 324
347 344 343 340 340 341 335 331 331 331 328 326 323 323 323 323 320 321 322 324 326 323 319 319 317 316 314 314 314 315 315 314 314 315 316 317 319 321
346 344 343 343 342 339 335 333 331 328 327 324 322 320 320 321 320 317 319 325 320 325 321 320 319 317 315 313 315 315 312 310 311 312 312 312 313 315
342 345 343 341 335 336 337 332 329 326 324 322 320 318 317 319 317 318 321 323 326 323 320 319 320 321 318 314 319 319 311 311 309 310 311 311 309 311
341 343 340 331 329 324 325 326 327 326 324 321 319 318 317 318 320 319 318 317 317 327 325 323 322 322 322 321 315 312 309 310 309 309 309 308 307 307
339 337 334 337 330 330 321 320 321 320 324 324 321 320 319 320 321 320 319 317 316 320 325 321 324 321 323 322 311 308 307 308 309 308 308 307 306 304
339 338 333 329 328 328 327 325 324 323 323 328 325 324 324 324 325 325 322 320 321 323 323 318 321 320 323 321 308 307 306 307 308 307 306 306 304 303
338 337 335 331 313 317 328 325 322 317 309 309 311 308 306 308 320 324 320 319 317 318 322 318 318 318 320 320 316 308 307 307 306 306 306 305 303 302
333 330 317 328 305 308 327 325 320 316 318 318 318 314 312 313 308 323 323 321 318 317 320 315 318 319 316 320 318 313 312 309 304 304 305 305 302 308
328 323 320 304 304 305 313 325 321 320 315 320 319 320 321 323 324 325 324 325 320 316 321 318 315 316 316 316 319 318 317 313 312 308 302 303 301 307
327 322 310 301 301 302 311 299 300 313 321 320 319 319 317 322 324 326 326 325 327 323 324 322 317 316 315 318 313 318 319 321 319 319 316 308 300 300
326 312 298 297 299 302 297 297 304 319 318 316 316 317 318 323 325 324 324 325 326 326 329 326 325 320 318 316 315 315 315 318 321 318 318 316 315 310
306 307 306 306 306 305 306 307 319 318 317 318 318 320 322 322 321 322 319 323 320 319 326 328 327 324 319 318 318 316 318 317 318 320 319 318 317 316
313 316 317 316 315 315 316 317 320 317 316 317 318 318 318 320 318 319 319 320 318 318 320 323 324 323 322 320 316 317 316 317 320 320 321 321 322 323
317 317 317 317 317 318 317 317 316 314 318 318 318 319 317 317 320 318 318 319 315 316 317 318 321 320 317 317 310 317 317 317 318 319 319 318 318 322
318 317 316 316 316 318 316 316 315 315 318 318 320 318 320 321 318 319 320 319 315 315 317 319 317 315 313 309 312 298 314 318 317 318 319 316 318 313
317 317 316 318 318 318 317 318 318 319 319 317 318 320 320 319 318 318 318 316 319 319 316 319 316 316 312 312 314 307 292 314 314 314 313 302 296 294
316 318 320 319 320 319 322 322 322 322 320 321 320 319 320 319 318 318 318 306 309 316 315 315 318 303 322 322 315 311 303 296 300 311 312 313 309 308
319 319 318 319 320 322 321 320 319 319 321 321 318 319 319 317 317 318 317 317 314 313 313 316 317 318 318 315 311 312 310 305 302 298 297 301 308 306
318 318 319 321 323 322 318 320 320 321 320 321 321 320 320 319 319 319 319 317 318 318 317 315 318 319 314 308 305 308 307 307 308 307 302 297 297 297
Wind_Speed
14 13 12 9 8 7 4 4 6 3 5 4 3 1 4 5 5 5 4 7 8 8 8 8 9 9 8 9 10 10 10 11 11 9 3 2 7 11
9 12 11 9 6 4 4 4 4 5 3 3 1 2 4 3 4 5 3 2 6 8 8 7 8 9 8 8 9 11 13 12 11 10 7 1 7 9
11 10 11 8 4 4 4 4 4 3 4 2 1 2 3 5 3 3 3 2 3 8 8 8 8 7 7 8 10 12 13 12 13 10 8 5 5 12
12 10 11 6 8 6 5 6 5 4 4 4 2 1 3 2 3 2 2 3 1 1 5 6 5 5 6 9 11 12 13 13 12 12 10 8 8 10
12 12 12 8 8 6 5 6 4 3 4 4 4 2 2 2 2 2 2 1 2 3 4 5 5 6 6 7 9 11 13 13 14 14 13 11 11 7
10 11 11 11 10 8 7 7 5 4 3 4 3 3 2 2 3 1 0 1 2 2 3 4 6 6 6 6 6 9 13 13 14 14 13 12 10 10
9 12 10 9 12 11 8 7 6 5 3 4 3 2 2 3 3 3 2 2 2 3 2 2 2 2 2 4 6 9 11 14 13 13 14 12 12 13
12 11 8 11 11 14 11 8 8 7 5 4 4 4 4 4 4 4 3 2 2 2 2 2 3 2 2 2 5 8 13 13 14 12 11 10 10 10
10 8 6 5 10 8 7 6 6 8 8 7 6 5 5 6 6 5 5 3 3 2 3 2 2 1 2 2 8 10 12 14 13 12 11 10 9 8
10 12 10 9 9 12 8 7 5 5 6 4 5 6 6 7 7 6 7 4 2 1 3 3 1 1 0 1 5 9 11 12 11 11 10 10 9 8
10 13 13 12 13 14 9 7 6 2 4 5 7 7 7 10 8 6 4 5 2 3 2 3 1 2 1 1 2 6 10 11 11 10 10 9 8 7
5 8 13 13 15 13 8 7 7 5 6 4 3 4 4 3 8 6 5 6 3 2 4 4 3 3 2 2 2 3 3 7 8 9 10 10 9 4
7 4 4 16 14 11 9 6 6 8 6 5 4 3 3 4 3 4 5 5 4 2 5 5 4 3 1 2 2 2 4 3 4 4 9 11 12 10
9 5 6 15 15 13 9 9 11 9 5 4 4 2 2 2 3 3 4 4 4 4 7 6 4 4 3 2 2 2 4 4 5 5 5 6 10 12
9 11 16 14 16 12 9 9 8 5 4 4 3 3 2 2 4 4 3 3 3 2 6 5 3 4 3 2 3 3 4 5 7 6 6 7 7 6
17 12 10 12 12 8 5 4 4 4 5 4 3 3 3 2 3 3 3 2 2 1 2 5 5 4 3 3 3 2 4 3 4 6 6 5 5 6
14 8 8 7 7 6 4 4 5 4 4 4 3 4 3 3 2 2 2 2 2 2 1 3 2 5 4 4 2 4 3 4 4 4 5 8 7 7
9 10 9 9 8 6 5 5 4 5 3 3 3 3 3 3 3 2 2 3 3 2 3 3 2 1 3 3 9 3 2 2 2 4 4 4 4 2
10 8 9 8 7 6 4 5 4 4 4 4 4 4 4 3 4 2 3 2 2 2 3 2 2 3 2 1 1 15 0 1 1 2 0 1 0 2
8 9 8 7 7 6 4 4 4 5 5 4 4 4 4 4 2 2 2 2 2 1 2 2 2 3 4 3 2 1 8 1 2 1 1 2 1 2
6 6 5 6 6 5 5 5 6 6 5 5 4 3 4 3 2 2 2 3 2 2 2 2 3 6 3 3 3 1 3 11 7 2 1 2 2 3
6 5 5 5 5 6 5 5 5 4 4 4 4 4 4 4 3 3 3 2 2 2 2 0 2 3 2 2 2 2 2 1 4 8 7 4 1 1
5 5 4 4 5 7 5 5 5 4 4 4 4 4 4 3 2 2 3 4 3 3 1 2 2 2 2 3 3 4 4 4 3 2 1 2 4 4
Wind_Direction
227 230 221 219 204 217 191 188 161 222 262 276 224 220 133 128 152 148 166 213 209 203 211 209 208 206 200 198 196 189 175 154 142 156 199 24 337 286
227 229 228 231 191 221 191 218 176 180 207 206 228 126 112 108 141 106 100 103 219 208 204 198 201 200 193 189 184 170 163 165 152 188 209 177 43 11
228 213 214 207 203 212 183 193 195 168 169 315 99 133 113 127 88 79 85 316 269 221 192 187 202 202 185 178 175 173 170 165 162 176 165 173 109 74
226 207 213 192 205 196 187 195 195 183 151 168 144 116 95 95 106 65 344 316 31 195 196 160 183 184 177 181 185 177 168 166 154 151 163 164 146 126
223 205 211 193 205 198 181 199 198 186 173 150 155 136 127 153 79 23 289 91 52 113 149 153 161 164 176 190 194 177 171 161 160 158 165 167 149 153
215 204 204 196 201 191 184 184 186 183 167 139 125 135 143 164 121 152 0 349 105 75 77 133 155 164 177 202 202 185 175 169 171 172 173 178 174 172
212 211 207 193 196 191 173 181 172 160 159 130 136 135 152 141 167 185 166 183 118 153 135 146 139 145 167 182 205 192 177 179 177 179 182 181 184 188
223 213 211 196 189 165 162 173 180 168 162 156 164 167 188 178 149 157 149 161 167 243 141 138 141 171 178 191 204 181 180 187 176 184 177 179 184 192
205 194 174 165 149 133 108 111 154 166 160 154 167 182 169 185 156 157 168 174 187 216 128 125 127 145 193 201 195 181 185 180 176 176 176 182 189 196
199 176 162 158 155 144 153 143 140 134 126 155 170 188 186 176 171 167 170 170 62 134 134 145 134 126 174 99 177 173 175 174 176 179 177 188 192 201
187 169 155 154 162 143 151 160 139 119 52 109 124 144 165 172 161 124 159 142 138 201 165 117 171 140 197 217 171 182 184 179 176 183 186 190 194 194
144 152 147 148 149 151 157 151 150 173 155 146 128 95 137 143 177 161 162 159 149 137 200 116 156 147 218 203 174 163 170 197 181 191 194 194 184 183
137 149 126 135 134 124 122 140 170 153 163 144 140 136 151 165 195 187 175 155 166 194 184 115 164 185 199 163 189 168 177 151 182 197 205 203 193 192
146 127 123 124 122 119 100 141 135 134 145 148 147 155 187 202 207 161 138 141 173 172 162 133 155 160 174 149 195 163 196 200 184 206 203 206 214 212
134 132 125 124 111 88 120 143 137 126 135 140 142 156 174 170 133 100 95 112 88 95 168 175 135 160 177 176 182 177 163 213 208 205 201 207 214 199
115 123 118 94 87 108 112 137 129 137 141 144 152 153 139 136 115 136 144 137 122 7 7 197 188 145 156 206 180 193 196 207 192 206 208 213 210 207
119 110 113 108 122 134 129 146 129 128 133 146 146 155 146 138 128 136 116 123 112 162 80 336 190 176 172 160 205 216 206 223 217 209 201 235 231 218
121 135 136 142 144 148 158 142 125 133 139 138 143 152 151 159 149 140 147 147 175 214 173 212 191 93 7 74 36 236 218 225 250 218 208 217 252 222
129 141 141 142 142 163 161 141 143 160 148 148 144 157 154 151 150 156 166 160 190 212 220 169 143 148 173 231 172 47 291 227 0 22 3 113 124 102
127 136 141 139 154 167 158 141 146 147 153 156 163 160 154 141 147 168 185 202 223 213 159 173 147 147 156 203 138 29 15 38 36 36 93 77 28 79
117 128 132 146 158 162 167 158 152 155 159 149 151 157 158 152 178 190 218 225 202 159 152 189 222 183 135 92 98 148 35 23 30 7 290 192 202 182
125 131 141 146 149 140 130 129 128 129 134 135 153 155 166 164 179 194 204 191 180 160 175 124 68 68 63 103 148 128 113 42 34 47 51 60 1 329
127 130 124 115 119 119 112 117 123 127 130 134 138 141 143 151 156 144 122 112 107 96 128 141 120 85 91 77 63 58 51 30 6 342 340 356 94 124